Location: Unspecified
(0.0000°N, 0.0000°E)
Time: 22:24:11
(UTC+00:00)

BlueWalker 3 - Pass Details

Date: 17 February 2024
Orbit: 486 x 500 km, 53.2° (Epoch: 20 February)

Event Time Altitude Azimuth Distance (km) Brightness Sun altitude
Exits shadow 04:41:46 26° 190° (S) 992 3.4 -22.5°
Drops below altitude 10° 04:43:51 10° 167° (SSE) 1,687 4.9 -22.0°
Sets 04:46:09 0° 159° (SSE) 2,574 6.0 -21.5°
